Theta_e
343 348 356 360 361 360 359 359 359 360 360 360 360 361 361 361 361 362 364 363 364 365 364 361 361 361 361 358 360 360 362 361 360 362 363 362 362 361 361 361 360 355 361
345 350 359 362 362 362 361 360 360 360 360 360 360 361 361 361 361 361 363 362 362 363 361 360 360 361 361 361 361 356 362 362 363 363 363 361 360 359 358 360 361 358 360
346 352 357 364 362 362 363 361 361 361 361 361 361 360 361 361 361 362 362 361 361 360 359 360 360 361 361 361 360 360 359 364 363 362 357 349 353 359 360 361 362 362 360
347 350 354 364 365 364 362 362 364 364 363 363 362 361 360 360 360 360 361 359 360 360 359 361 361 361 361 360 356 359 360 361 355 355 349 344 352 359 361 361 361 361 361
348 352 353 362 365 363 362 362 362 363 361 361 360 361 361 360 360 361 360 359 361 360 361 360 361 361 360 359 360 359 359 358 352 348 344 340 347 359 360 357 360 360 360
348 354 360 364 365 363 363 363 363 363 362 362 360 360 360 359 359 360 360 359 360 360 361 361 361 361 361 359 358 357 357 357 347 344 349 344 348 357 359 360 359 358 359
352 357 360 366 366 366 365 364 363 362 362 361 361 360 359 359 360 360 360 359 360 361 361 361 361 360 360 360 358 355 355 358 348 346 347 345 343 353 357 360 360 360 359
352 357 359 365 367 365 364 363 363 362 362 361 360 360 360 360 360 361 360 361 361 362 362 361 362 359 359 358 358 356 355 359 351 345 345 342 342 354 360 360 360 360 360
351 353 356 358 361 364 364 364 362 361 359 362 360 361 361 361 361 361 362 360 361 361 360 359 361 360 359 357 357 357 357 358 348 350 347 342 345 361 360 361 360 360 360
348 352 354 356 357 357 357 363 363 362 361 360 359 359 362 360 360 362 364 363 362 360 362 362 360 359 358 357 356 355 357 359 347 347 351 350 361 361 361 360 359 360 360
345 349 351 352 354 354 353 358 362 362 362 361 359 360 359 351 351 355 359 362 361 361 362 361 360 359 357 356 355 356 358 349 351 353 350 359 362 362 361 361 360 360 359
342 345 349 351 353 353 356 353 353 354 353 353 352 352 349 351 351 350 356 361 360 362 361 360 358 357 355 350 352 354 347 348 349 350 350 361 362 363 361 361 360 360 360
342 343 345 348 349 351 354 353 354 352 354 352 353 352 353 353 350 352 352 351 352 358 354 355 352 350 349 347 343 347 342 348 349 350 351 359 364 363 361 361 361 360 360
339 340 345 346 349 349 352 351 354 354 350 352 352 354 352 350 350 349 350 348 349 349 350 350 349 348 346 342 343 343 340 341 345 349 349 360 360 361 360 361 361 361 360
339 341 345 346 344 348 352 352 349 352 351 349 352 352 350 348 350 351 351 350 347 350 349 347 348 348 347 348 347 346 345 344 341 346 348 360 360 360 361 360 359 360 360
340 341 343 345 345 350 349 350 349 348 351 353 353 355 354 351 347 348 348 349 349 349 349 350 346 347 344 345 345 346 347 349 345 344 349 351 361 361 361 360 359 359 359
339 342 343 344 349 349 348 350 351 353 350 351 353 350 352 350 348 345 346 348 347 349 346 347 346 347 343 344 343 344 348 348 347 345 340 347 353 361 362 358 361 362 361
338 341 343 350 347 350 348 348 352 353 351 352 352 347 348 352 350 350 349 348 351 348 343 344 344 344 345 345 345 345 344 346 347 346 345 344 346 349 357 360 359 363 361
338 339 343 346 345 348 351 350 353 351 350 350 351 351 352 355 356 353 352 352 353 348 346 349 346 346 343 345 346 348 348 345 346 349 347 347 345 347 346 356 358 361 360
341 340 341 343 346 348 353 354 352 350 347 349 351 350 354 355 355 352 352 350 350 350 350 348 347 349 348 346 351 350 348 350 350 347 346 349 349 349 346 347 350 353 361
343 342 342 344 347 353 351 348 347 346 347 351 355 355 355 353 355 353 352 352 351 352 349 350 350 348 348 349 344 342 345 347 347 346 349 349 348 350 349 346 346 346 348
343 345 345 345 351 350 349 348 349 348 350 351 357 356 355 354 355 355 350 351 352 350 350 350 347 344 344 345 338 336 330 335 344 345 344 346 345 349 349 350 345 343 342
344 346 347 349 350 351 351 351 346 343 351 349 350 350 353 356 355 355 355 351 349 350 347 347 348 344 341 343 343 336 328 325 332 342 340 346 342 345 345 348 350 351 350
343 347 350 350 350 353 356 351 346 340 343 346 348 349 347 354 356 354 354 353 351 352 348 346 351 346 343 337 341 345 341 341 327 322 336 339 344 346 344 345 345 347 348
346 347 347 355 354 351 355 351 349 344 347 350 350 348 347 351 357 356 354 353 350 349 348 347 346 345 343 340 336 333 331 330 330 329 324 329 337 341 341 343 345 346 343
346 348 348 352 353 354 353 354 349 348 348 346 346 344 346 348 353 354 355 352 351 348 348 345 344 340 335 336 331 330 328 321 320 320 318 318 324 335 339 339 339 341 340
Wind_Speed
3 4 2 10 12 14 15 14 13 11 12 12 12 13 13 13 13 13 13 13 11 9 9 8 8 7 9 9 7 11 12 13 12 14 16 13 13 12 12 16 17 12 14
3 3 7 10 13 13 14 13 13 11 11 10 11 11 12 12 11 12 12 10 9 8 9 7 7 8 9 10 12 11 10 12 13 14 16 11 10 7 9 15 16 13 14
4 5 5 8 12 13 13 11 12 10 10 10 10 10 9 9 9 11 10 7 7 6 8 8 7 8 10 12 10 11 9 11 15 14 13 5 3 10 14 15 14 16 14
7 6 7 9 11 14 13 11 10 10 8 9 10 10 8 6 7 8 8 7 6 7 8 8 9 9 10 11 10 8 10 14 15 11 4 3 5 10 12 12 13 14 13
8 9 8 11 13 14 14 10 8 9 8 8 9 8 8 6 5 6 7 5 7 8 8 7 10 10 9 9 8 7 11 19 15 9 2 1 4 6 11 11 11 14 13
8 11 12 14 15 13 13 11 9 9 9 9 8 8 7 6 5 4 6 5 6 8 10 10 10 10 10 7 5 6 8 14 11 3 3 4 1 4 10 12 11 12 12
13 11 11 13 15 12 12 10 8 8 9 9 7 7 7 5 5 6 6 6 6 8 8 10 10 9 8 8 5 3 5 14 8 4 4 4 4 3 7 10 13 12 13
14 11 11 13 13 13 11 11 9 9 9 8 8 7 6 6 6 7 7 8 8 9 9 10 11 9 8 6 4 3 2 14 9 2 3 3 7 7 10 11 11 12 12
15 13 9 8 11 14 12 12 11 8 8 8 7 8 9 7 8 9 9 8 9 10 9 8 9 9 8 6 4 3 4 13 7 2 5 3 10 12 12 12 12 11 10
15 14 12 9 7 7 7 12 12 9 9 8 8 9 9 8 8 10 9 9 9 9 9 9 9 7 6 4 2 1 4 13 12 9 5 5 13 14 13 12 11 11 11
10 14 13 13 11 10 7 8 11 12 10 8 7 8 5 2 2 5 8 11 10 10 10 9 9 8 6 4 2 4 12 5 7 3 4 12 14 15 14 13 12 11 10
15 13 13 13 11 9 8 5 5 6 4 5 6 5 5 4 4 5 7 11 11 10 10 9 8 7 5 2 2 1 5 4 4 1 3 16 15 15 13 12 12 13 11
10 8 10 9 10 9 7 7 3 3 4 4 6 6 7 4 4 4 3 3 3 8 3 5 5 2 3 4 3 2 3 4 3 5 7 17 17 18 17 15 13 11 11
8 8 8 8 5 6 5 6 7 5 4 4 5 6 5 4 5 3 3 3 3 3 4 4 3 5 5 5 5 5 4 4 4 4 8 15 13 13 16 16 16 15 13
13 10 7 6 10 7 5 6 3 5 4 5 4 6 4 4 4 4 2 2 2 3 3 4 2 4 4 2 2 4 5 5 5 2 4 13 11 12 13 14 15 14 14
15 15 13 9 9 11 6 8 5 4 4 4 3 4 2 4 4 3 4 3 4 3 1 3 3 4 1 0 2 3 5 5 3 4 3 5 11 10 11 11 10 12 13
15 16 16 16 16 9 8 6 5 4 4 3 3 2 3 3 5 5 4 3 3 3 3 2 2 4 3 2 4 4 4 5 5 5 5 4 5 11 13 12 12 12 13
13 17 17 14 13 9 8 6 4 4 3 4 1 2 5 5 5 4 3 4 4 5 4 2 1 1 2 2 2 4 4 4 6 6 6 5 5 5 9 12 13 13 14
10 12 17 14 13 9 8 6 5 6 4 4 3 2 7 6 5 4 3 3 4 4 3 3 2 2 2 3 3 3 5 4 5 4 6 6 8 7 6 12 14 13 15
13 11 8 10 13 10 8 5 4 3 3 4 5 5 6 6 6 5 4 4 4 3 3 2 4 3 3 3 3 3 5 6 3 0 4 5 6 6 6 6 6 8 16
16 14 12 10 13 8 7 4 4 4 3 4 6 8 7 6 6 6 4 4 4 4 5 4 2 2 2 1 1 3 3 2 1 4 1 5 6 5 7 6 4 3 3
19 16 11 13 13 9 8 4 3 3 3 2 6 6 6 6 6 5 4 4 5 2 3 3 3 1 1 1 2 1 3 4 3 5 2 6 7 4 6 6 7 6 5
13 16 14 14 13 10 9 5 3 3 0 3 3 3 3 6 5 4 3 3 3 3 2 1 3 2 0 2 2 3 1 2 3 0 4 6 4 3 1 3 5 7 5
15 15 15 16 15 9 9 7 7 5 4 3 4 4 3 3 3 4 2 4 3 3 3 2 2 2 2 2 3 3 3 3 2 3 3 3 4 5 4 2 5 5 4
17 16 15 15 15 10 9 9 6 6 4 3 4 7 5 4 5 4 4 2 4 3 2 3 3 3 2 2 1 3 3 3 4 2 2 3 5 4 4 6 5 4 5
17 17 16 15 16 13 10 9 10 9 7 6 5 5 4 3 4 5 5 5 5 3 3 3 4 6 4 4 3 3 1 2 1 3 2 1 1 3 3 4 4 4 3
Wind_Direction
247 248 104 126 124 125 123 119 114 107 102 97 94 95 95 95 94 89 88 90 96 96 97 95 83 77 76 95 108 101 101 100 106 104 97 101 103 113 116 113 113 109 110
151 229 120 132 139 133 125 124 121 121 113 113 111 103 102 95 94 95 96 96 98 100 94 88 88 82 81 92 102 101 97 103 100 94 79 86 90 80 140 118 116 119 119
171 147 120 126 146 140 132 131 128 130 125 128 118 111 107 101 100 99 101 104 104 107 97 98 104 98 93 100 104 101 103 96 89 75 61 41 14 91 96 112 118 120 120
185 148 133 137 147 146 138 139 140 127 133 144 130 126 127 120 110 112 117 107 97 104 112 103 114 106 110 107 110 115 117 97 79 90 105 67 28 110 105 115 122 117 120
174 145 140 145 135 146 137 147 142 117 113 106 109 127 131 138 127 126 116 106 107 111 111 115 114 114 117 113 106 103 99 99 102 103 146 101 59 117 123 130 131 134 130
179 144 151 158 134 131 128 144 135 131 120 122 123 129 140 139 132 136 130 127 119 127 132 118 111 117 132 120 118 107 99 122 151 119 138 160 340 167 141 145 135 131 124
141 145 156 158 134 136 142 131 129 138 138 132 131 144 140 157 144 144 151 147 145 132 134 130 131 128 129 136 147 163 144 143 190 153 153 175 213 251 141 132 134 135 131
138 150 154 151 138 145 141 145 146 157 145 136 157 164 157 165 152 143 156 152 145 146 149 137 141 138 142 149 162 262 322 140 132 55 174 218 214 224 150 144 144 136 142
147 149 142 148 155 146 156 156 147 138 140 154 173 163 172 169 164 163 164 160 171 149 149 152 146 149 152 160 183 229 321 127 142 175 160 203 224 178 163 151 145 143 144
148 150 153 161 153 158 169 161 143 155 159 160 181 181 180 185 178 177 164 174 160 154 156 158 156 160 162 169 214 295 27 70 137 174 181 208 191 164 162 152 150 144 149
155 162 162 165 170 172 167 166 163 174 170 172 193 177 174 60 247 214 174 178 171 172 167 168 172 175 178 173 259 329 55 109 147 228 216 181 172 167 161 155 152 154 156
170 177 172 172 171 155 159 182 167 181 167 181 198 175 127 137 234 218 225 178 181 179 172 180 183 187 194 89 276 155 99 126 77 230 246 182 173 163 158 160 164 163 166
196 148 169 160 172 169 183 170 180 189 176 191 206 192 169 185 211 234 196 158 183 186 180 193 199 200 215 189 164 180 154 147 156 221 205 196 173 164 165 169 169 171 169
176 175 104 125 75 176 167 171 182 176 177 190 206 223 173 194 186 212 175 166 177 198 215 194 195 200 213 235 187 180 242 169 193 219 206 198 175 171 172 174 174 178 180
180 161 150 153 162 212 176 172 165 169 177 208 193 215 188 152 145 162 151 144 213 189 218 195 198 215 181 206 188 199 211 240 193 161 178 190 187 181 181 187 182 181 186
177 172 171 174 188 193 156 142 172 165 188 144 166 206 160 108 141 142 132 157 123 272 179 151 132 110 264 34 265 232 229 251 219 159 149 186 187 187 198 203 199 192 196
166 168 172 179 172 154 147 141 148 191 152 140 121 82 333 170 160 166 164 157 180 170 231 122 149 167 192 232 253 259 239 241 254 166 174 179 201 203 201 200 207 211 210
163 167 171 173 159 152 147 145 170 169 150 105 192 198 257 243 193 163 169 176 173 175 196 200 208 274 241 234 269 261 258 239 218 204 177 201 198 211 215 201 206 212 212
161 151 172 156 158 152 151 165 155 132 84 101 143 236 237 208 187 163 184 177 163 184 191 198 222 201 250 280 271 242 260 269 255 220 227 189 197 195 207 221 211 205 215
157 161 161 144 160 163 152 153 101 112 175 142 234 179 223 184 168 158 166 192 191 204 233 176 200 226 213 240 282 301 253 251 200 22 288 222 208 213 186 194 210 208 206
159 165 168 138 162 141 151 139 154 185 184 190 191 177 177 166 162 148 180 173 194 215 217 205 165 168 286 185 322 320 296 220 142 206 256 218 214 237 197 183 199 202 204
165 166 156 152 156 150 160 160 143 139 223 166 161 159 173 151 132 145 164 195 198 195 152 137 124 8 269 188 140 88 341 343 305 268 216 220 215 211 197 192 160 184 214
155 161 156 159 163 159 169 123 95 104 228 87 136 105 127 128 127 144 192 166 146 138 117 99 135 172 260 315 190 155 43 256 326 353 234 226 197 186 96 107 175 181 194
163 159 157 164 169 165 159 151 153 156 155 181 160 143 140 155 170 174 148 156 135 127 133 181 205 138 116 252 327 220 201 172 149 349 338 312 150 188 147 78 78 88 95
162 163 164 158 167 175 155 154 150 158 176 161 145 136 151 178 226 173 183 169 116 113 133 147 110 87 49 31 40 342 17 26 53 134 271 350 43 57 94 103 106 93 80
162 162 167 162 172 171 169 160 169 173 160 150 147 150 162 180 182 190 195 157 139 132 121 96 83 78 61 55 32 11 308 142 150 85 79 305 101 63 78 78 89 114 118